Total_Precipitation_Accumulation
1.24 1.55 2.00 2.34 2.80 3.30 3.51 3.61 3.65 3.91 4.27 4.27 4.06 3.83 3.52 3.25 3.02 2.93 2.89 2.70 2.55 2.43 2.36 2.22 2.21 2.12 2.01 1.94 1.91 1.88 1.85 1.73 1.69 1.75 1.64 1.40 1.26 1.16 1.01 0.91 0.81 0.75 0.75
1.19 1.49 1.83 2.19 2.45 3.06 3.44 3.51 3.70 3.95 4.22 4.16 4.06 3.97 3.88 3.67 3.39 3.24 3.00 2.84 2.69 2.51 2.43 2.34 2.20 2.16 2.10 2.00 1.96 1.94 2.02 2.09 2.06 2.04 2.03 1.89 1.69 1.36 1.11 1.03 0.94 0.86 0.87
1.15 1.39 1.63 1.96 2.14 2.53 3.03 3.26 3.40 3.75 4.01 4.20 4.55 4.57 4.38 4.04 3.57 3.27 3.11 2.95 2.93 2.78 2.55 2.51 2.39 2.22 2.14 2.06 1.97 1.85 1.81 1.93 2.08 2.11 2.21 2.07 1.79 1.49 1.28 1.11 1.02 0.95 0.90
1.12 1.34 1.53 1.67 1.88 2.15 2.59 3.02 3.28 3.54 3.75 3.91 4.16 4.31 4.16 3.77 3.38 3.15 3.14 3.18 3.12 3.09 2.93 2.74 2.60 2.46 2.29 2.14 2.09 2.06 1.93 1.88 1.93 1.99 1.95 1.87 1.66 1.59 1.51 1.29 1.16 1.06 1.00
1.27 1.38 1.44 1.46 1.64 1.89 2.34 2.75 3.06 3.36 3.52 3.66 3.77 3.96 4.03 3.90 3.72 3.47 3.36 3.36 3.28 3.17 3.05 2.95 2.78 2.60 2.48 2.36 2.27 2.18 2.16 2.10 2.00 1.96 1.89 1.86 1.66 1.46 1.47 1.37 1.23 1.20 1.12
1.47 1.46 1.46 1.44 1.53 1.73 2.01 2.42 2.78 3.17 3.40 3.52 3.73 3.80 3.72 3.76 3.75 3.47 3.42 3.41 3.46 3.36 3.12 2.93 2.83 2.69 2.59 2.49 2.43 2.38 2.32 2.24 2.12 2.05 1.99 1.98 1.92 1.66 1.55 1.45 1.27 1.26 1.19
1.38 1.40 1.44 1.44 1.51 1.67 1.83 2.08 2.32 2.70 3.12 3.32 3.48 3.61 3.65 3.54 3.58 3.50 3.37 3.35 3.27 3.24 3.20 3.01 2.90 2.82 2.61 2.50 2.46 2.43 2.33 2.32 2.24 2.16 2.10 2.03 1.90 1.79 1.79 1.78 1.61 1.49 1.31
1.33 1.38 1.42 1.53 1.61 1.63 1.72 1.89 2.02 2.23 2.68 3.03 3.14 3.22 3.40 3.41 3.27 3.27 3.20 3.17 3.08 2.99 3.05 3.08 2.94 2.86 2.75 2.56 2.44 2.38 2.27 2.23 2.23 2.15 2.08 2.04 1.95 1.89 1.91 1.96 2.03 1.97 1.67
1.27 1.36 1.42 1.56 1.65 1.64 1.64 1.75 1.87 1.93 2.20 2.64 2.90 3.01 3.09 3.06 2.87 2.79 2.79 2.81 2.87 2.86 2.89 2.94 2.86 2.78 2.69 2.56 2.44 2.34 2.22 2.14 2.08 2.03 1.99 1.94 1.87 1.87 1.86 1.90 2.06 2.29 2.16
1.27 1.40 1.46 1.48 1.57 1.61 1.66 1.73 1.72 1.76 1.87 2.11 2.44 2.75 2.90 2.83 2.78 2.68 2.50 2.43 2.42 2.47 2.58 2.70 2.70 2.67 2.61 2.52 2.37 2.22 2.16 2.12 2.00 1.94 1.91 1.83 1.74 1.77 1.84 1.90 1.93 2.07 2.21
1.35 1.49 1.54 1.55 1.56 1.57 1.67 1.73 1.65 1.62 1.67 1.81 1.97 2.20 2.55 2.64 2.65 2.61 2.39 2.25 2.16 2.13 2.18 2.21 2.28 2.34 2.38 2.38 2.29 2.12 2.03 2.03 1.95 1.89 1.90 1.82 1.72 1.72 1.72 1.77 1.79 1.83 1.94
1.23 1.37 1.46 1.50 1.57 1.62 1.70 1.79 1.74 1.66 1.59 1.63 1.70 1.83 2.10 2.35 2.46 2.57 2.44 2.25 2.14 2.03 2.01 1.99 2.00 2.01 2.01 2.07 2.07 1.96 1.87 1.84 1.79 1.75 1.78 1.78 1.72 1.72 1.67 1.65 1.64 1.59 1.57
1.08 1.15 1.23 1.37 1.51 1.62 1.68 1.78 1.79 1.70 1.58 1.52 1.53 1.65 1.80 1.99 2.11 2.19 2.29 2.23 2.19 2.07 1.97 1.91 1.89 1.86 1.85 1.86 1.86 1.87 1.78 1.72 1.66 1.61 1.62 1.63 1.67 1.64 1.56 1.51 1.48 1.44 1.45
0.99 1.01 1.10 1.20 1.32 1.48 1.58 1.63 1.69 1.68 1.61 1.49 1.41 1.48 1.56 1.73 1.85 1.86 1.99 2.03 2.07 2.10 1.97 1.82 1.77 1.73 1.74 1.78 1.80 1.86 1.84 1.73 1.66 1.62 1.58 1.52 1.50 1.45 1.41 1.42 1.42 1.48 1.59
0.95 1.01 1.04 1.07 1.16 1.25 1.33 1.41 1.48 1.49 1.51 1.47 1.39 1.38 1.38 1.46 1.57 1.59 1.67 1.76 1.83 1.97 1.98 1.87 1.80 1.74 1.71 1.76 1.79 1.83 1.84 1.77 1.72 1.63 1.54 1.47 1.48 1.44 1.41 1.45 1.47 1.55 1.73
0.93 0.98 1.00 0.98 0.99 1.06 1.15 1.20 1.29 1.35 1.40 1.39 1.39 1.35 1.32 1.34 1.42 1.43 1.46 1.52 1.63 1.77 1.88 1.91 1.86 1.81 1.77 1.98 1.96 1.86 1.82 1.80 1.76 1.69 1.56 1.47 1.49 1.42 1.44 1.48 1.56 1.72 1.92
0.83 0.85 0.89 0.94 0.97 1.00 1.02 1.07 1.14 1.19 1.26 1.28 1.29 1.34 1.38 1.37 1.40 1.40 1.40 1.46 1.56 1.67 1.79 1.85 1.90 1.90 1.94 2.01 1.84 1.89 1.79 1.74 1.70 1.63 1.57 1.49 1.40 1.41 1.26 1.35 1.48 1.56 1.71
0.80 0.85 0.85 0.87 0.88 0.91 0.92 0.93 0.96 1.04 1.12 1.16 1.21 1.24 1.31 1.35 1.34 1.37 1.38 1.44 1.51 1.61 1.72 1.79 1.77 1.76 1.83 1.88 1.75 1.75 1.67 1.70 1.68 1.59 1.51 1.50 1.46 1.44 1.47 1.50 1.54 1.37 1.29
0.78 0.86 0.88 0.87 0.84 0.82 0.86 0.88 0.90 0.93 0.99 1.10 1.22 1.25 1.31 1.34 1.36 1.41 1.43 1.45 1.52 1.59 1.59 1.62 1.65 1.64 1.69 1.73 1.64 1.63 1.53 1.59 1.55 1.49 1.44 1.44 1.39 1.59 1.77 1.78 1.75 1.50 1.24
0.68 0.76 0.79 0.80 0.80 0.84 0.87 0.91 0.95 0.96 1.04 1.14 1.24 1.27 1.31 1.40 1.42 1.41 1.43 1.42 1.48 1.56 1.51 1.47 1.46 1.46 1.48 1.57 1.53 1.51 1.43 1.48 1.44 1.42 1.41 1.52 1.48 1.65 1.78 1.70 1.77 1.68 1.38
0.67 0.67 0.68 0.75 0.89 0.96 0.96 0.99 1.01 1.09 1.15 1.18 1.23 1.25 1.23 1.30 1.35 1.32 1.31 1.36 1.40 1.40 1.36 1.31 1.30 1.29 1.34 1.42 1.38 1.41 1.38 1.42 1.42 1.38 1.32 1.31 1.55 1.67 1.73 1.63 1.48 1.57 1.61
0.64 0.62 0.63 0.70 0.77 0.89 0.99 1.04 1.09 1.11 1.08 1.08 1.15 1.25 1.25 1.24 1.26 1.28 1.28 1.31 1.31 1.27 1.24 1.18 1.17 1.15 1.20 1.30 1.31 1.36 1.42 1.51 1.43 1.29 1.18 1.23 1.48 1.51 1.56 1.51 1.54 1.71 1.70
0.63 0.61 0.62 0.63 0.62 0.70 0.83 1.00 1.10 1.12 1.11 1.08 1.13 1.21 1.22 1.23 1.27 1.26 1.26 1.26 1.23 1.18 1.14 1.10 1.07 1.06 1.06 1.17 1.31 1.34 1.43 1.49 1.40 1.29 1.33 1.36 1.40 1.37 1.38 1.53 1.66 1.62 1.49
0.58 0.60 0.58 0.56 0.59 0.63 0.68 0.80 0.90 0.99 1.06 1.11 1.12 1.15 1.20 1.23 1.22 1.20 1.22 1.26 1.28 1.24 1.15 1.09 1.06 1.02 0.98 1.03 1.11 1.22 1.30 1.34 1.35 1.37 1.37 1.32 1.31 1.32 1.39 1.51 1.52 1.46 1.53
0.58 0.60 0.59 0.56 0.58 0.58 0.61 0.64 0.70 0.78 0.88 0.97 1.03 1.04 1.09 1.16 1.19 1.18 1.23 1.28 1.31 1.39 1.41 1.31 1.20 1.17 1.13 1.12 1.27 1.33 1.31 1.33 1.37 1.39 1.34 1.29 1.29 1.32 1.30 1.33 1.37 1.45 1.60
0.57 0.56 0.54 0.52 0.55 0.56 0.59 0.61 0.63 0.70 0.77 0.83 0.89 0.94 0.98 1.03 1.06 1.08 1.12 1.21 1.25 1.31 1.34 1.35 1.34 1.25 1.26 1.27 1.27 1.28 1.36 1.45 1.50 1.49 1.43 1.35 1.30 1.32 1.30 1.32 1.36 1.41 1.56